Geneva, Switzerland

2:45 AM CET on February 12, 2016 (GMT +0100)
Geneva

Weather History for 06700 - April, 2013

Change the Weather History Date:

Wednesday, April 3, 2013

  Actual Average Record
Temperature  
Mean Temperature 41 °F -  
Max Temperature 50 °F 57 °F - ()
Min Temperature 32 °F 39 °F - ()
Degree Days  
Heating Degree Days 24    
Moisture  
Dew Point 32 °F    
Average Humidity 66    
Maximum Humidity 93    
Minimum Humidity 30    
Precipitation  
Precipitation 0.00 in 0.08 in - ()
Sea Level Pressure  
Sea Level Pressure 29.73 in    
Wind  
Wind Speed 6 mph ()    
Max Wind Speed 14 mph    
Max Gust Speed -    
Visibility 4.6 miles    
Events      
T = Trace of Precipitation, MM = Missing Value Source: Averaged Metar Reports

Daily Weather History Graph

Daily Weather History Graph

Search for Another Location

Airport or City:

Trip Planner

Search our weather history database for the weather conditions in past years. The results will help you decide how hot, cold, wet, or windy it might be!

Date:

Astronomy

Apr. 03, 2013 Rise Set
Actual Time 7:11 AM CEST 8:06 PM CEST
Civil Twilight 6:40 AM CEST 8:37 PM CEST
Nautical Twilight 6:04 AM CEST 9:14 PM CEST
Astronomical Twilight 5:26 AM CEST 9:52 PM CEST
Moon 3:01 AM CEST (4/3) 12:39 PM CEST (4/3)
Length of Visible Light 13h 56m
Length of Day
12h 55m
Waning Gibbous, 47% of the Moon is Illuminated
Apr 3
Waning Gibbous
Apr 10
New
Apr 18
First Quarter
Apr 25
Full
May 2
Last Quarter

Hourly Weather History & Observations

Time (CEST) Temp. Windchill Dew Point Humidity Pressure Visibility Wind Dir Wind Speed Gust Speed Precip Events Conditions
12:00 AM 42 °F - 32 °F 58% 29.74 in - NE 12.7 mph - -  
12:20 AM 42.8 °F 36.6 °F 32.0 °F 66% 29.71 in 5.0 mi NE 11.5 mph - N/A   Mostly Cloudy
12:50 AM 41.0 °F 33.5 °F 32.0 °F 70% 29.71 in 5.0 mi NE 13.8 mph - N/A   Mostly Cloudy
1:00 AM 41 °F - 32 °F 59% 29.76 in - NE 13.8 mph - -  
1:20 AM 41.0 °F 34.7 °F 32.0 °F 70% 29.71 in 5.0 mi ENE 10.4 mph - N/A   Mostly Cloudy
1:50 AM 41.0 °F 37.1 °F 32.0 °F 70% 29.74 in 5.0 mi NE 5.8 mph - N/A   Mostly Cloudy
2:00 AM 40 °F - 32 °F 65% 29.78 in 5 mi NE 6.9 mph - -   Haze
2:20 AM 39.2 °F - 32.0 °F 75% 29.74 in 5.0 mi Variable 2.3 mph - N/A   Mostly Cloudy
2:50 AM 39.2 °F 37.0 °F 32.0 °F 75% 29.74 in 5.0 mi Variable 3.5 mph - N/A   Mostly Cloudy
3:00 AM 39 °F - 32 °F 68% 29.79 in - NE 4.6 mph - -  
3:50 AM 39.2 °F - 32.0 °F 75% 29.74 in 4.3 mi Variable 2.3 mph - N/A   Mostly Cloudy
4:00 AM 39 °F - 31 °F 63% 29.80 in - NNE 3.5 mph - -  
4:20 AM 37.4 °F - 32.0 °F 81% 29.74 in 4.3 mi NE 2.3 mph - N/A   Mostly Cloudy
4:50 AM 37.4 °F - 32.0 °F 81% 29.74 in 4.3 mi Variable 2.3 mph - N/A   Unknown
5:20 AM 35.6 °F 32.8 °F 32.0 °F 87% 29.74 in 4.3 mi Variable 3.5 mph - N/A   Unknown
5:50 AM 35.6 °F 32.8 °F 32.0 °F 87% 29.74 in 3.7 mi Variable 3.5 mph - N/A   Unknown
6:00 AM 34 °F - 30 °F 80% 29.82 in - North 3.5 mph - -  
6:20 AM 33.8 °F - 30.2 °F 87% 29.74 in 3.7 mi North 2.3 mph - N/A   Unknown
6:50 AM 32.0 °F - 30.2 °F 93% 29.74 in 3.7 mi North 2.3 mph - N/A   Unknown
7:00 AM 33 °F - 30 °F 82% 29.82 in - North 3.5 mph - -  
7:20 AM 32.0 °F - 30.2 °F 93% 29.74 in 3.1 mi Variable 2.3 mph - N/A   Mist
7:50 AM 32.0 °F - 30.2 °F 93% 29.74 in 3.1 mi North 2.3 mph - N/A   Mist
8:00 AM 34 °F - 30 °F 81% 29.82 in 3 mi NNE 3.5 mph - -   Mist
8:20 AM 33.8 °F - 32.0 °F 93% 29.74 in 3.1 mi Variable 1.2 mph - N/A   Mist
8:50 AM 37.4 °F - 33.8 °F 87% 29.77 in 3.1 mi Variable 1.2 mph - N/A   Mist
9:00 AM 38 °F - 33 °F 77% 29.81 in - NNE 3.5 mph - -  
9:20 AM 39.2 °F 35.9 °F 33.8 °F 81% 29.74 in 3.7 mi NE 4.6 mph - N/A   Scattered Clouds
9:50 AM 39.2 °F 37.0 °F 33.8 °F 81% 29.77 in 3.7 mi ENE 3.5 mph - N/A   Mostly Cloudy
10:00 AM 39 °F - 33 °F 72% 29.81 in - NE 3.5 mph - -  
10:20 AM 39.2 °F 35.0 °F 33.8 °F 81% 29.77 in 3.7 mi ENE 5.8 mph - N/A   Mostly Cloudy
10:50 AM 41.0 °F 36.4 °F 33.8 °F 76% 29.74 in 3.7 mi NE 6.9 mph - N/A   Mostly Cloudy
11:20 AM 41.0 °F 38.0 °F 33.8 °F 76% 29.77 in 4.3 mi NNE 4.6 mph - N/A   Mostly Cloudy
11:50 AM 42.8 °F - 33.8 °F 70% 29.74 in 4.3 mi Variable 2.3 mph - N/A   Mostly Cloudy
12:00 PM 44 °F - 33 °F 54% 29.78 in - NE 4.6 mph - -  
12:20 PM 44.6 °F 40.7 °F 32.0 °F 61% 29.74 in 5.0 mi East 6.9 mph - N/A   Scattered Clouds
12:50 PM 44.6 °F 41.4 °F 33.8 °F 66% 29.74 in 5.0 mi NNE 5.8 mph - N/A   Scattered Clouds
1:00 PM 44 °F - 32 °F 52% 29.78 in - East 4.6 mph - -  
1:20 PM 46.4 °F 44.3 °F 33.8 °F 62% 29.74 in 5.0 mi Variable 4.6 mph - N/A   Partly Cloudy
1:50 PM 46.4 °F 44.3 °F 33.8 °F 62% 29.74 in 5.0 mi Variable 4.6 mph - N/A   Partly Cloudy
2:00 PM 47 °F - 34 °F 48% 29.75 in 5 mi NE 6.9 mph - -   Haze
2:20 PM 46.4 °F 42.9 °F 33.8 °F 62% 29.74 in 5.0 mi NE 6.9 mph - N/A   Partly Cloudy
2:50 PM 48.2 °F - 33.8 °F 58% 29.71 in 5.6 mi ENE 6.9 mph - N/A   Partly Cloudy
3:00 PM 49 °F - 31 °F 38% 29.74 in - NE 9.2 mph - -  
3:20 PM 50.0 °F - 32.0 °F 50% 29.71 in 5.6 mi ENE 5.8 mph - N/A   Partly Cloudy
3:50 PM 50.0 °F - 32.0 °F 50% 29.71 in 5.6 mi NE 5.8 mph - N/A   Partly Cloudy
4:00 PM 50 °F - 31 °F 35% 29.72 in - ENE 8.1 mph - -  
4:20 PM 50.0 °F - 30.2 °F 47% 29.71 in 5.6 mi NNE 8.1 mph - N/A   Partly Cloudy
4:50 PM 50.0 °F - 32.0 °F 50% 29.68 in 5.6 mi ENE 8.1 mph - N/A   Partly Cloudy
5:20 PM 50.0 °F - 32.0 °F 50% 29.68 in 5.6 mi NE 9.2 mph - N/A   Partly Cloudy
5:50 PM 51.8 °F - 32.0 °F 47% 29.68 in 5.0 mi NE 8.1 mph - N/A   Partly Cloudy
6:00 PM 50 °F - 28 °F 30% 29.69 in - NE 8.1 mph - -  
6:20 PM 50.0 °F - 32.0 °F 50% 29.68 in 5.0 mi NE 6.9 mph - N/A   Scattered Clouds
6:50 PM 50.0 °F - 32.0 °F 50% 29.68 in 5.0 mi NNE 5.8 mph - N/A   Scattered Clouds
7:00 PM 50 °F - 31 °F 35% 29.69 in - NNE 9.2 mph - -  
7:20 PM 50.0 °F - 32.0 °F 50% 29.68 in 5.0 mi NE 6.9 mph - N/A   Scattered Clouds
7:50 PM 48.2 °F - 35.6 °F 62% 29.68 in 4.3 mi NE 8.1 mph - N/A   Partly Cloudy
8:00 PM 47 °F - 35 °F 53% 29.70 in 5 mi NE 8.1 mph - -   Haze
8:20 PM 46.4 °F 42.9 °F 35.6 °F 66% 29.68 in 4.3 mi NE 6.9 mph - N/A   Partly Cloudy
8:50 PM 44.6 °F 38.8 °F 33.8 °F 66% 29.68 in 4.3 mi NE 11.5 mph - N/A   Partly Cloudy
9:00 PM 45 °F - 35 °F 56% 29.72 in - NE 12.7 mph - -  
9:20 PM 44.6 °F 39.2 °F 33.8 °F 66% 29.71 in 4.3 mi NE 10.4 mph - N/A   Partly Cloudy
9:50 PM 42.8 °F 37.0 °F 33.8 °F 70% 29.71 in 5.0 mi NE 10.4 mph - N/A   Partly Cloudy
10:00 PM 43 °F - 33 °F 59% 29.74 in - NE 11.5 mph - -  
10:20 PM 42.8 °F 37.5 °F 33.8 °F 70% 29.71 in 5.0 mi NE 9.2 mph - N/A   Partly Cloudy
10:50 PM 42.8 °F 37.0 °F 33.8 °F 70% 29.71 in 5.0 mi NE 10.4 mph - N/A   Partly Cloudy
11:20 PM 41.0 °F 35.8 °F 33.8 °F 76% 29.71 in 5.0 mi NE 8.1 mph - N/A   Unknown
11:50 PM 41.0 °F 34.7 °F 33.8 °F 76% 29.71 in 5.0 mi NE 10.4 mph - N/A   Unknown